IUS DEB, 43361

Orbit data source: Space-Track

IUS DEB, 43361 is space debris originally from a launch on Fri, 23 Jul 1999 UTC launched from the Air Force Eastern Test Range (AFETR). Debris objects in space refer to the collection of defunct objects orbiting the Earth. Examples of debris include non-operational satellites, rocket bodies, and fragments generated from explosions, collisions, or faulty payload assembly.

Loading next visibility...
Identifier
43361, 1999-040J
Orbit
Active
Last TLE update
2 days ago
Origin
Manufacturer
Boeing/Kent
Mission
Spacecraft
Bus & Motor
Unknown
Mass
Unknown
Launch date (UTC)
1999-07-23 (26 years ago)
Launch vehicle
Unknown
Launch site
Air Force Eastern Test Range (AFETR)
Object type
Payload
Rocket body
Debris
Shape & HBR
Unknown
Radar Cross Section
Small (<0.1 m²)

Expand to show TLE details & history

TLE from 2 days ago
0 IUS DEB
1 43361U 99040J   25187.51603396  .00000088  00000-0  17746-2 0  9998
2 43361  27.8661 281.6620 3368984 134.9609 257.9059  7.21205566 93572
Epoch: 2025-07-06T12:23Z
TLE epoch observation values (Epoch: 2025-07-06T12:23:05.334Z)
Latitude
0.00001°
Longitude
171.15118°
Altitude
6,783.813 km
Speed
5.035 km/s
True Right ascension
18h 46m 38s
True Declination
0° 00' 00"
Sunlit
Object was in full shadow at epoch
Visualization orbit readout
Latitude
27.96525°
Longitude
-103.68675°
Altitude
1,908.848 km
Speed
7.812 km/s
Apparent Right ascension
03h 11m 22s
Apparent Declination
-1° 47' 36"
Sunlit
Object is in daylight
Visualization observer readout
Local Sidereal Time
20:26:49
Azimuth
84.186° E
Elevation
-9.679°
Doppler factor
1
Orbital elements
Apogee altitude
8,754.506 km
Perigee altitude
1,127.654 km
Semi-major axis
11,319.217 km
Eccentricity
0.3369
Inclination
27.8661°
RAAN
281.662°
Arg. of periapsis
134.9609°
True anomaly
Unknown
Mean anomaly
257.9059°
Eccentric anomaly
Unknown
Mean motion
1.80226 °/min
Orbital period
199.75 mins
BSTAR
0.0017746
Loading maneuver chart data...
Loading SW <> Apogee altitude chart data...
Loading historical data...
Loading historical data...
Loading historical data...
Loading historical data...
Loading historical data...
Loading historical data...
Loading historical data...

IUS DEB Visibility forecast

Observer location: undefined°, undefined°

Span
Click to sort rows by Start time (UTC) header in descending order
Start Az.
Max El. time (UTC)
Max El. Az.
Max El.
End time (UTC)
End Az.
28 mins2025-07-08 11:17:07.708Z248.268° W2025-07-08 11:37:07.708Z185.375° SSW36.354°2025-07-08 11:45:07.708Z113.407° SE
9 mins2025-07-08 15:04:07.708Z248.847° W2025-07-08 15:09:07.708Z206.938° SW20.476°2025-07-08 15:13:07.708Z163.487° S
58 mins2025-07-09 06:30:07.708Z207.112° SW2025-07-09 07:10:07.708Z157.811° S28.841°2025-07-09 07:28:07.708Z102.031° ESE
|